User: anonymous   Login
Location: B?jaj?g
(11.7167°N, 92.6667°E)
Time: 07:23:56
(UTC+00:00)
Language:

Cosmos 1300 Rocket - Orbit

View from above orbital plane
View from above orbital plane
View from above satellite
View from above satellite

Ground track
Ground track

The orbit data is extracted from the following two-line orbital elements,

1 12786U 81082B   20329.81076068 +.00000096 +00000-0 +83654-5 0  9991
2 12786 082.4909 223.2521 0018998 068.2532 292.0703 14.84805670100182
Epoch (UTC): 24 November 2020 19:27:29
Eccentricity: 0.0018998
inclination: 82.4909°
perigee height: 601 km
apogee height: 627 km
right ascension of ascending node: 223.2521°
argument of perigee: 68.2532°
revolutions per day: 14.84805670
mean anomaly at epoch: 292.0703°
orbit number at epoch: 10018

The dashed part of the orbit path shows where the satellite is in the earth's shadow,  

DLR